Weather History for Augusta, GA

Change the Weather History Date:

Friday, March 29, 2013

  Actual Average Record
Temperature  
Mean Temperature 55 °F -  
Max Temperature 67 °F 69 °F 84 °F (1997)
Min Temperature 42 °F 49 °F 39 °F (2011)
Degree Days  
Heating Degree Days 10    
Month to date heating degree days 415  
Growing Degree Days 4 (Base 50)    
Moisture  
Dew Point 25 °F    
Average Humidity 33    
Maximum Humidity 53    
Minimum Humidity 18    
Precipitation  
Precipitation 0.00 in - - ()
Month to date precipitation 2.69  
Year to date precipitation 11.84  
Sea Level Pressure  
Sea Level Pressure 30.28 in    
Wind  
Wind Speed 5 mph (ENE)    
Max Wind Speed 10 mph    
Max Gust Speed 16 mph    
Visibility 10 miles    
Events      
Averages and records for this station are not official NWS values.
T = Trace of Precipitation, MM = Missing Value Source: NWS Daily Summary

Daily Weather History Graph

Daily Weather History Graph

Search for Another Location

Airport:

Trip Planner

Search our weather history database for the weather conditions in past years. The results will help you decide how hot, cold, wet, or windy it might be!

Date:

Astronomy

Mar. 29, 2013 Rise Set
Actual Time 7:19 AM EDT 7:46 PM EDT
Civil Twilight 6:54 AM EDT 8:11 PM EDT
Nautical Twilight 6:25 AM EDT 8:40 PM EDT
Astronomical Twilight 5:55 AM EDT 9:10 PM EDT
Moon 10:35 PM EDT (3/29) 8:36 AM EDT (3/29)
Length of Visible Light 13h 17m
Length of Day
12h 27m
Waning Gibbous, 93% of the Moon is Illuminated
Mar 29
Waning Gibbous
Apr 3
Last Quarter
Apr 10
New
Apr 18
First Quarter
Apr 25
Full

Hourly Weather History & Observations

Time (EDT) Temp. Windchill Dew Point Humidity Pressure Visibility Wind Dir Wind Speed Gust Speed Precip Events Conditions
12:53 AM 48.0 °F - 28.9 °F 48% 30.28 in 10.0 mi North 6.9 mph - N/A   Clear
1:53 AM 45.0 °F 42.6 °F 28.9 °F 53% 30.29 in 10.0 mi North 4.6 mph - N/A   Clear
2:53 AM 44.1 °F 39.0 °F 27.0 °F 51% 30.30 in 10.0 mi North 9.2 mph - N/A   Clear
3:53 AM 43.0 °F 38.8 °F 25.0 °F 49% 30.30 in 10.0 mi North 6.9 mph - N/A   Clear
4:53 AM 46.0 °F 42.5 °F 21.0 °F 37% 30.30 in 10.0 mi ENE 6.9 mph - N/A   Clear
5:53 AM 44.1 °F 40.8 °F 21.9 °F 42% 30.31 in 10.0 mi East 5.8 mph - N/A   Clear
6:53 AM 42.1 °F 38.4 °F 21.9 °F 45% 30.31 in 10.0 mi ENE 5.8 mph - N/A   Clear
7:53 AM 43.0 °F 38.8 °F 23.0 °F 45% 30.33 in 10.0 mi East 6.9 mph - N/A   Clear
8:53 AM 46.0 °F 41.9 °F 21.9 °F 39% 30.35 in 10.0 mi East 8.1 mph - N/A   Clear
9:53 AM 50.0 °F - 24.1 °F 36% 30.35 in 10.0 mi East 8.1 mph - N/A   Clear
10:53 AM 53.1 °F - 24.1 °F 32% 30.36 in 10.0 mi Calm Calm - N/A   Clear
11:53 AM 57.0 °F - 23.0 °F 27% 30.35 in 10.0 mi South 5.8 mph - N/A   Clear
12:53 PM 59.0 °F - 19.0 °F 21% 30.32 in 10.0 mi Calm Calm - N/A   Clear
1:53 PM 62.1 °F - 19.9 °F 20% 30.30 in 10.0 mi Calm Calm - N/A   Clear
2:53 PM 64.0 °F - 19.9 °F 18% 30.26 in 10.0 mi Variable 4.6 mph - N/A   Clear
3:53 PM 64.9 °F - 23.0 °F 20% 30.23 in 10.0 mi Variable 3.5 mph - N/A   Clear
4:53 PM 66.0 °F - 23.0 °F 20% 30.21 in 10.0 mi Calm Calm - N/A   Overcast
5:53 PM 64.9 °F - 26.1 °F 23% 30.21 in 10.0 mi Calm Calm - N/A   Partly Cloudy
6:53 PM 64.9 °F - 25.0 °F 22% 30.20 in 10.0 mi NE 4.6 mph - N/A   Scattered Clouds
7:53 PM 63.0 °F - 27.0 °F 26% 30.21 in 10.0 mi Calm Calm - N/A   Mostly Cloudy
8:53 PM 61.0 °F - 28.0 °F 29% 30.22 in 10.0 mi ENE 5.8 mph - N/A   Overcast
9:53 PM 60.1 °F - 28.9 °F 31% 30.22 in 10.0 mi East 4.6 mph - N/A   Overcast
10:53 PM 59.0 °F - 30.0 °F 33% 30.23 in 10.0 mi NE 8.1 mph - N/A   Overcast
11:53 PM 57.9 °F - 30.9 °F 36% 30.23 in 10.0 mi East 4.6 mph - N/A   Partly Cloudy